Regional Weather Roundup
Issued by NWS

Home | Current Version | Previous Version | Text Only | Print | Product List | Glossary On
Versions: 1 2 3 4 5 6 7 8 9 10 11 12 13 14 15 16 17 18 19 20 21 22 23 24 25 26 27 28 29 30 31 32 33 34 35 36 37 38 39 40 41 42 43 44 45 46 47 48 49 50
000
ASUS43 KDTX 220510
RWRMI
MICHIGAN HOURLY REGIONAL WEATHER ROUNDUP
NATIONAL WEATHER SERVICE DETROIT/PONTIAC MI
100 AM EDT WED OCT 22 2014

NOTE: "FAIR" INDICATES FEW OR NO CLOUDS BELOW 12,000 FEET WITH NO
SIGNIFICANT WEATHER AND/OR OBSTRUCTION TO VISIBILITY.

MIZ047>049-052>055-059>063-066>070-074>076-081>083-220600-
SOUTHEAST LOWER MICHIGAN

CITY           SKY/WX    TMP DP  RH WIND       PRES   REMARKS
ADRIAN         CLOUDY    43  36  76 N12       30.23S
ALMA           PTCLDY    35  31  88 N5        30.28S
ANN ARBOR      CLOUDY    44  34  67 N9        30.22S
BAD AXE        CLOUDY    43  39  85 NE10      30.25S
DETROIT CITY   CLOUDY    47  37  68 N10       30.21S
DETROIT        CLOUDY    45  37  73 N12       30.21S
FLINT          CLOUDY    45  35  68 N9        30.25S
GROSSE ILE     CLOUDY    46  39  76 N9G16     30.19S
HILLSDALE      CLEAR     37  36  96 N3        30.22F
HOWELL         CLOUDY    40  35  83 N5        30.23S

CITY           SKY/WX    TMP DP  RH WIND       PRES   REMARKS
JACKSON        CLOUDY    39  35  86 NE6       30.24S
LAMBERTVILLE   CLOUDY    45  36  70 N3        30.21S
LANSING        CLEAR     36  32  85 N5        30.27R
LAPEER         NOT AVBL
MASON          PTCLDY    36  33  90 N3        30.25F
MONROE         CLOUDY    45  37  76 N9        30.19S
MT. CLEMENS    CLOUDY    45  41  85 N8        30.18S
PONTIAC        CLOUDY    43  36  76 N8        30.21S
PORT HOPE        N/A     46  39  76 NE20      30.24S
PORT HURON     CLOUDY    46  41  81 N12G22    30.20S
TRI CITIES     CLOUDY    42  32  67 N9        30.28S
YPSILANTI      CLOUDY    48  36  63 N13       30.22S
$$
MIZ043>046-050>051-056>058-064>065-071>073-077>080-220600-
SOUTHWEST LOWER MICHIGAN

CITY           SKY/WX    TMP DP  RH WIND       PRES   REMARKS
BATTLE CREEK   CLEAR     35  32  88 CALM      30.26S
BENTON HARBOR  CLEAR     31  31 100 E3        30.25S
BIG RAPIDS     CLEAR     32  32  99 CALM      30.29S
COLDWATER      CLEAR     40  36  86 N6        30.25S
HOLLAND        CLEAR     40  35  83 E6        30.28R
GRAND RAPIDS   CLEAR     35  32  88 N6        30.28R
KALAMAZOO      CLEAR     36  33  89 N3        30.26S
MARSHALL       CLEAR     34  33  94 CALM      30.25S
MUSKEGON       CLEAR     37  32  82 NE7       30.28S
$$
MIZ016>042-220600-
NORTHERN LOWER MICHIGAN

CITY           SKY/WX    TMP DP  RH WIND       PRES   REMARKS
ALPENA         CLOUDY    39  31  72 NE8       30.31S
BEAVER ISLAND  CLEAR     33  33  99 E3        30.31S
BELLAIRE       CLEAR     29  28  94 CALM      30.32S
CADILLAC       CLEAR     26  25  99 CALM      30.28S
CHARLEVOIX     CLEAR     31  31  97 CALM      30.34S
FRANKFORT      CLEAR     33  30  90 CALM      30.31R
GAYLORD        CLEAR     30  27  88 CALM      30.28S
GRAYLING       CLEAR     27  26  99 CALM      30.29S
HARBOR SPRINGS CLEAR     30  28  92 CALM      30.32S
HOUGHTON LAKE  CLEAR     28  25  88 E3        30.28F
MANISTEE       CLEAR     30  28  93 CALM      30.31R
OSCODA         CLOUDY    42  35  75 NE10      30.28S
PELLSTON       CLEAR     26  24  92 CALM      30.33R
TRAVERSE CITY  CLEAR     32  28  85 CALM      30.31R
$$
MIZ007>008-015-220600-
EASTERN UPPER MICHIGAN

CITY           SKY/WX    TMP DP  RH WIND       PRES   REMARKS
KINROSS        MOCLDY    34  30  86 E6        30.34S
MACKINAC ISLAN MOCLDY    39  32  76 E12G18    30.32S
NEWBERRY       CLEAR     32  28  87 E6        30.33R
S. S. MARIE    CLEAR     33  27  78 E5        30.34S
$$
MIZ004>006-011>014-085-220600-
CENTRAL UPPER MICHIGAN

CITY           SKY/WX    TMP DP  RH WIND       PRES   REMARKS
MANISTIQUE     PTCLDY    26  25  95 NW3       30.32S
ESCANABA       PTCLDY    28  25  86 CALM      30.31F
MENOMINEE      CLEAR     34  28  80 N5        30.30S
SAWYER-GWINN   PTCLDY    27  26  96 CALM      30.30F
$$
MIZ001>003-009>011-084-220600-
WESTERN UPPER MICHIGAN

CITY           SKY/WX    TMP DP  RH WIND       PRES   REMARKS
IRON MOUNTAIN  PTCLDY    27  25  92 CALM      30.30S
HOUGHTON       CLEAR     35  31  85 E8        30.28F
COPPER HARBOR    N/A     39  33  79 S5        30.29F
IRONWOOD       CLEAR     36  32  87 E6        30.22F
$$

ABBREVIATIONS USED IN REMARKS
   TC - TEMPERATURE IN CELSIUS
  WCI - WIND CHILL INDEX
   HX - HEAT INDEX
  VSB - VISIBILITY




USA.gov is the U.S. government's official web portal to all federal, state and local government web resources and services.